Regional Weather Roundup
Issued by NWS

Home | Current Version | Previous Version | Text Only | Print | Product List | Glossary On
Versions: 1 2 3 4 5 6 7 8 9 10 11 12 13 14 15 16 17 18 19 20 21 22 23 24 25 26 27 28 29 30 31 32 33 34 35 36 37 38 39 40 41 42 43 44 45 46 47 48 49 50
000
ASUS44 KOUN 300610
RWROK

WEATHER ROUNDUP FOR OKLAHOMA
NATIONAL WEATHER SERVICE NORMAN OK
100 AM CDT MON MAR 30 2015

NOTE: "FAIR" INDICATES FEW OR NO CLOUDS BELOW 12,000 FEET WITH NO
      SIGNIFICANT WEATHER AND/OR OBSTRUCTIONS TO VISIBILITY.

OKZ001>007-009>012-014-015-017-300700-
NORTHWEST OKLAHOMA AND THE PANHANDLE

CITY           SKY/WX    TMP DP  RH WIND       PRES   REMARKS
GAGE           PTCLDY    45  33  63 W5        30.21R
6HR MIN TEMP:  43; 6HR MAX TEMP:  72;

GUYMON         PTCLDY    49  29  46 CALM      30.22S
ENID/WOODRING  CLEAR     45  36  70 NE9       30.16F
$$

OKZ016-021>023-033>039-044-045-300700-
SOUTHWEST OKLAHOMA

CITY           SKY/WX    TMP DP  RH WIND       PRES   REMARKS
LAWTON/REGL    CLEAR     52  42  69 N3        30.16S
6HR MIN TEMP:  52; 6HR MAX TEMP:  75;

LAWTON/FT SILL CLEAR     54  43  67 N8        30.15S
FREDERICK      CLEAR     53  41  63 N13       30.14
CLINTON        CLEAR     54  32  43 NE6       30.20S
HOBART         CLEAR     50  34  54 E6        30.19R
ALTUS AFB      CLEAR     49  39  68 NE7       30.17S
$$

OKZ018>020-024>031-300700-
CENTRAL OKLAHOMA

CITY           SKY/WX    TMP DP  RH WIND       PRES   REMARKS
OKLAHOMA CITY  PTCLDY    54  42  64 NW3       30.17S
6HR MIN TEMP:  54; 6HR MAX TEMP:  73;

OKC/WILEY POST CLEAR     52  38  58 N6        30.18R
OKC/TINKER AFB CLEAR     61  40  45 SE7       30.16S
STILLWATER     CLEAR     49  37  63 N8        30.17R
GUTHRIE        CLEAR     47  37  68 CALM      30.18R
$$

OKZ008-013-054>072-300700-
NORTHEAST OKLAHOMA

CITY           SKY/WX    TMP DP  RH WIND       PRES   REMARKS
TULSA          CLEAR     48  43  82 NW5       30.16R
6HR MIN TEMP:  48; 6HR MAX TEMP:  67;

TULSA/JONES    CLEAR     46  41  82 CALM      30.16S
PONCA CITY     CLEAR     43  35  73 N6        30.19R
BARTLESVILLE   CLEAR     39  37  92 CALM      30.19S
MUSKOGEE       CLEAR     49  43  80 N5        30.17R
$$

OKZ032-040>043-046>053-073>077-300700-
SOUTH CENTRAL/SOUTHEAST OKLAHOMA

CITY           SKY/WX    TMP DP  RH WIND       PRES   REMARKS
ARDMORE/DWNTWN MOCLDY    59  43  55 CALM      30.14R
MCALESTER      PTCLDY    49  44  83 CALM      30.16R
$$




USA.gov is the U.S. government's official web portal to all federal, state and local government web resources and services.